Location: Beneden-Haastrecht
(52.0012°N, 4.7557°E)
Time: 11:43:54
(UTC+00:00)

Aureole 3 Rocket - Pass Details

Date: 24 October 2020
Orbit: 399 x 1739 km, 82.5° (Epoch: 24 November)

Event Time Altitude Azimuth Distance (km) Brightness Sun altitude
Rises 17:14:20 0° 148° (SSE) 2,580 6.0 -7.9°
Reaches altitude 10° 17:16:33 10° 132° (SE) 1,833 5.1 -8.2°
Maximum altitude 17:19:40 22° 80° (E) 1,407 4.3 -8.7°
Drops below altitude 10° 17:23:34 10° 30° (NNE) 2,351 5.7 -9.3°
Sets 17:26:48 0° 18° (NNE) 3,547 6.7 -9.8°
